Location: Golden Pond Observatory
(36.7773°N, 88.0631°W)
Time: 23:42:45
(UTC-06:00)

N. Korean satellite - Visible Passes

Search period start: 12 November 2019 00:00
Search period end: 22 November 2019 00:00
Orbit: 456 x 506 km, 97.2° (Epoch: 12 November)

Date Brightness Start Highest point End Pass type
(mag) Time Alt. Az. Time Alt. Az. Time Alt. Az.
12 Nov 10.0 04:47:15 10° ENE 04:49:22 14° E 04:51:27 10° SE visible
13 Nov 6.6 05:53:50 10° N 05:57:32 66° WNW 06:01:11 10° SSW visible
13 Nov 10.0 18:01:45 10° SW 18:03:42 14° W 18:05:40 10° WNW visible
14 Nov 7.6 05:28:32 10° NNE 05:32:10 52° E 05:35:46 10° S visible
14 Nov 8.8 17:35:01 10° SSW 17:38:10 29° W 17:41:24 10° NW visible
15 Nov 9.2 05:03:41 10° NE 05:06:43 24° E 05:09:43 10° SSE visible
15 Nov 7.0 17:09:11 10° S 17:12:45 69° W 17:16:23 10° NNW visible
16 Nov 10.2 04:39:57 10° ENE 04:41:11 11° E 04:42:24 10° ESE visible
17 Nov 6.6 05:45:42 10° N 05:49:25 86° WNW 05:53:04 10° SSW visible
17 Nov 9.8 17:52:58 10° SW 17:55:29 18° W 17:58:03 10° NW visible
18 Nov 8.1 05:20:31 10° NNE 05:24:01 40° E 05:27:28 10° S visible
18 Nov 8.3 17:26:36 10° SSW 17:29:59 38° W 17:33:26 10° NNW visible
19 Nov 9.6 04:55:51 10° NE 04:58:31 19° E 05:01:10 10° SE visible
19 Nov 6.6 17:00:58 10° SSE 17:04:35 90° ENE 17:08:16 10° NNW visible
20 Nov 6.8 06:03:01 10° N 06:06:34 48° WNW 06:10:05 10° SSW visible
20 Nov 10.3 18:11:56 10° WSW 18:12:49 11° W 18:13:42 10° WNW visible
21 Nov 6.9 05:37:33 10° NNE 05:41:15 73° ESE 05:44:51 10° S visible
21 Nov 9.4 17:44:20 10° SSW 17:47:15 23° W 17:50:13 10° NW visible
